Regional Weather Roundup
Issued by NWS Nashville, TN

Home | Current Version | Previous Version | Text Only | Print | Product List | Glossary On
Versions: 1 2 3 4 5 6 7 8 9 10 11 12 13 14 15 16 17 18 19 20 21 22 23 24 25 26 27 28 29 30 31 32 33 34 35 36 37 38 39 40 41 42 43 44 45 46 47 48 49 50
000
ASUS44 KOHX 232000
RWROHX
MIDDLE TENNESSEE HOURLY WEATHER ROUNDUP
NATIONAL WEATHER SERVICE NASHVILLE TN
300 PM CDT SAT AUG 23 2014

NOTE: "FAIR" INDICATES FEW OR NO CLOUDS BELOW 12,000 FEET WITH
NO SIGNIFICANT WEATHER AND/OR OBSTRUCTIONS TO VISIBILITY.

* THESE REPORTS ARE NOT UNDER NWS QUALITY CONTROL AND MAY NOT
  REPORT WEATHER SUCH AS PRECIPITATION AND FOG.


TNZ005>011-023>034-057-059-062>066-078-080-232100
...NORTHERN MIDDLE TENNESSEE...

CITY           SKY/WX    TMP DP  RH WIND       PRES   REMARKS
CLARKSVILLE    MOSUNNY   95  75  52 NW10      29.94F HX 107
CROSSVILLE     MOSUNNY   86  68  54 N9        30.06F
NASHVILLE      MOSUNNY   94  74  52 NW6       29.97F HX 104
SPARTA         MOSUNNY   90  75  62 VRB5      30.00F HX 100
$$
TNZ056-058-060-061-075>077-079-093>097-232100
...SOUTHERN MIDDLE TENNESSEE...

CITY           SKY/WX    TMP DP  RH WIND       PRES   REMARKS
COLUMBIA       SUNNY     93  73  52 NW6       29.98F HX 102
FAYETTEVILLE   MOSUNNY   90  70  51 NW6       30.00F HX  95
MCMINNVILLE    MOSUNNY   90  77  66 N5        30.01F HX 102
SHELBYVILLE    MOSUNNY   90  79  70 W10       30.00F HX 105
TULLAHOMA      MOSUNNY   84  77  79 SE5       30.03F HX  94
WINCHESTER       N/A     90  75  62 W8        30.01F HX 100
$$


...KEY TO REMARKS...
VSB - VISIBILITY IN MILES
WCI - WIND CHILL INDEX
HX  - HEAT INDEX




USA.gov is the U.S. government's official web portal to all federal, state and local government web resources and services.